Cherry Point, NC

5:38 PM EST on February 21, 2017 (GMT -0500)
Cherry Point Marine Corps Air Station

Weather History for KNKT - September, 2014

Change the Weather History Date:

Monday, September 1, 2014

  Actual Average Record
Temperature  
Mean Temperature 84 °F -  
Max Temperature 91 °F 82 °F 96 °F (2012)
Min Temperature 77 °F 68 °F 64 °F (1999)
Cooling Degree Days 19    
Growing Degree Days 34 (Base 50)    
Moisture  
Dew Point 75 °F    
Average Humidity 79    
Maximum Humidity 94    
Minimum Humidity 52    
Precipitation  
Precipitation 0.00 in - - ()
Sea Level Pressure  
Sea Level Pressure 30.09 in    
Wind  
Wind Speed 6 mph (SSW)    
Max Wind Speed 12 mph    
Max Gust Speed -    
Visibility 10 miles    
Events      
Averages and records for this station are not official NWS values.
T = Trace of Precipitation, MM = Missing Value Source: NWS Daily Summary

Daily Weather History Graph

Daily Weather History Graph

Search for Another Location

Airport or City:

Trip Planner

Search our weather history database for the weather conditions in past years. The results will help you decide how hot, cold, wet, or windy it might be!

Date:

Astronomy

Sep. 01, 2014 Rise Set
Actual Time 6:40 AM EDT 7:34 PM EDT
Civil Twilight 6:14 AM EDT 7:59 PM EDT
Nautical Twilight 5:43 AM EDT 8:30 PM EDT
Astronomical Twilight 5:12 AM EDT 9:01 PM EDT
Moon 1:08 PM EDT (9/1) 11:49 PM EDT (9/1)
Length of Visible Light 13h 45m
Length of Day
12h 53m
Waxing Crescent, 42% of the Moon is Illuminated
Sep 1
Waxing Crescent
Sep 2
First Quarter
Sep 8
Full
Sep 15
Last Quarter
Sep 24
New

Hourly Weather History & Observations

Time (EDT) Temp. Heat Index Dew Point Humidity Pressure Visibility Wind Dir Wind Speed Gust Speed Precip Events Conditions
12:54 AM 77.0 °F - 73.9 °F 90% 30.12 in 10.0 mi South 4.6 mph - N/A   Clear
1:54 AM 77.0 °F - 73.9 °F 90% 30.11 in 10.0 mi SSW 4.6 mph - N/A   Clear
2:54 AM 78.1 °F - 75.0 °F 90% 30.09 in 10.0 mi South 3.5 mph - N/A   Clear
3:54 AM 78.1 °F - 75.0 °F 90% 30.08 in 10.0 mi South 3.5 mph - N/A   Clear
4:54 AM 77.0 °F - 75.0 °F 94% 30.09 in 10.0 mi SSW 5.8 mph - N/A   Clear
5:54 AM 77.0 °F - 75.0 °F 94% 30.11 in 10.0 mi SSW 3.5 mph - N/A   Clear
6:40 AM 77.0 °F - 75.0 °F 94% 30.12 in 10.0 mi WSW 3.5 mph - N/A   Mostly Cloudy
6:54 AM 77.0 °F - 75.0 °F 94% 30.12 in 9.0 mi SSW 3.5 mph - N/A   Scattered Clouds
7:54 AM 79.0 °F - 75.9 °F 90% 30.12 in 10.0 mi SSW 3.5 mph - N/A   Mostly Cloudy
8:54 AM 82.0 °F 89.4 °F 75.9 °F 82% 30.13 in 10.0 mi WSW 6.9 mph - N/A   Scattered Clouds
9:54 AM 84.9 °F 92.1 °F 73.9 °F 69% 30.12 in 10.0 mi WSW 8.1 mph - N/A   Scattered Clouds
10:54 AM 87.1 °F 94.5 °F 73.0 °F 63% 30.11 in 10.0 mi SW 6.9 mph - N/A   Scattered Clouds
11:54 AM 88.0 °F 94.7 °F 72.0 °F 59% 30.10 in 10.0 mi WNW 6.9 mph - N/A   Partly Cloudy
12:54 PM 90.0 °F 96.9 °F 72.0 °F 55% 30.09 in 10.0 mi WSW 6.9 mph - N/A   Scattered Clouds
1:54 PM 91.9 °F 99.5 °F 72.0 °F 52% 30.07 in 10.0 mi SW 5.8 mph - N/A   Scattered Clouds
2:54 PM 91.0 °F 101.6 °F 75.0 °F 59% 30.06 in 10.0 mi South 11.5 mph - N/A   Scattered Clouds
3:54 PM 90.0 °F 100.2 °F 75.0 °F 61% 30.05 in 10.0 mi South 10.4 mph - N/A   Mostly Cloudy
5:54 PM 84.9 °F 93.3 °F 75.0 °F 72% 30.05 in 10.0 mi SSW 11.5 mph - N/A   Scattered Clouds
6:54 PM 82.9 °F 90.2 °F 75.0 °F 77% 30.05 in 10.0 mi South 6.9 mph - N/A   Mostly Cloudy
7:54 PM 81.0 °F 87.3 °F 75.9 °F 85% 30.07 in 10.0 mi SW 8.1 mph - N/A   Mostly Cloudy
8:54 PM 81.0 °F 87.3 °F 75.9 °F 85% 30.07 in 10.0 mi SW 8.1 mph - N/A   Scattered Clouds
9:54 PM 80.1 °F 85.1 °F 75.0 °F 85% 30.08 in 10.0 mi SSW 4.6 mph - N/A   Partly Cloudy
10:54 PM 79.0 °F - 75.0 °F 88% 30.09 in 10.0 mi SSW 5.8 mph - N/A   Scattered Clouds
11:54 PM 78.1 °F - 75.0 °F 90% 30.09 in 10.0 mi SW 5.8 mph - N/A   Scattered Clouds